Weather History for Barter Island, AK

Change the Weather History Date:

Saturday, January 19, 2013

  Actual Average Record
Temperature  
Mean Temperature -20 °F -  
Max Temperature -24 °F -4 °F 10 °F (2006)
Min Temperature -26 °F -15 °F -29 °F (2004)
Degree Days  
Heating Degree Days 86    
Moisture  
Dew Point -27 °F    
Average Humidity 77    
Maximum Humidity 82    
Minimum Humidity 73    
Precipitation  
Precipitation 0.00 in - - ()
Sea Level Pressure  
Sea Level Pressure 30.93 in    
Wind  
Wind Speed 9 mph (SSW)    
Max Wind Speed 15 mph    
Max Gust Speed -    
Visibility 10 miles    
Events      
Averages and records for this station are not official NWS values.
T = Trace of Precipitation, MM = Missing Value Source: NWS Daily Summary

Daily Weather History Graph

Daily Weather History Graph

Search for Another Location

Airport:

Trip Planner

Search our weather history database for the weather conditions in past years. The results will help you decide how hot, cold, wet, or windy it might be!

Date:

Astronomy

Jan. 19, 2013 Rise Set
Actual Time 11:49 AM AKST 1:42 PM AKST
Civil Twilight 9:39 AM AKST 3:51 PM AKST
Nautical Twilight 8:11 AM AKST 5:20 PM AKST
Astronomical Twilight 6:56 AM AKST 6:35 PM AKST
Moon 9:38 AM AKST (1/19) 3:58 AM AKST (1/19)
Length of Visible Light 6h 12m
Length of Day
1h 52m
First Quarter, 58% of the Moon is Illuminated
Jan 19
First Quarter
Jan 26
Full
Feb 3
Last Quarter
Feb 9
New
Feb 17
First Quarter

Hourly Weather History & Observations

Time (AKST) Temp. Windchill Dew Point Humidity Pressure Visibility Wind Dir Wind Speed Gust Speed Precip Events Conditions
12:01 AM -15.0 °F -38.5 °F -18.9 °F 82% 30.97 in 10.0 mi West 15.0 mph - N/A   Unknown
1:01 AM -15.0 °F -38.5 °F -18.9 °F 82% 30.98 in 10.0 mi West 15.0 mph - N/A   Unknown
2:01 AM -15.0 °F -38.5 °F -18.9 °F 82% 30.99 in 10.0 mi WNW 15.0 mph - N/A   Unknown
3:01 AM -15.0 °F -35.9 °F -18.9 °F 82% 31.00 in 10.0 mi West 11.5 mph - N/A   Unknown
4:01 AM -15.0 °F -33.7 °F -20.0 °F 78% 31.00 in 10.0 mi West 9.2 mph - N/A   Unknown
5:01 AM -18.0 °F -38.6 °F -23.1 °F 78% 31.00 in 10.0 mi WSW 10.4 mph - N/A   Clear
6:01 AM -20.0 °F -42.2 °F -25.1 °F 78% 31.00 in 10.0 mi WSW 11.5 mph - N/A   Clear
7:01 AM -20.9 °F -41.0 °F -26.0 °F 77% 30.99 in 10.0 mi West 9.2 mph - N/A   Clear
8:01 AM -20.9 °F -39.7 °F -26.0 °F 77% 30.99 in 10.0 mi West 8.1 mph - N/A   Clear
9:01 AM -20.9 °F -34.3 °F -27.0 °F 73% 30.98 in 10.0 mi WSW 4.6 mph - N/A   Clear
10:01 AM -23.1 °F - -27.9 °F 78% 30.97 in 9.0 mi Calm Calm - N/A   Clear
11:01 AM -24.0 °F -35.2 °F -29.9 °F 74% 30.97 in 10.0 mi South 3.5 mph - N/A   Clear
12:01 PM -24.0 °F -35.2 °F -29.9 °F 74% 30.96 in 9.0 mi South 3.5 mph - N/A   Clear
1:01 PM -24.0 °F - -29.9 °F 74% 30.95 in 10.0 mi Calm Calm - N/A   Clear
2:01 PM -24.0 °F -35.2 °F -29.0 °F 77% 30.93 in 10.0 mi SE 3.5 mph - N/A   Clear
3:01 PM -25.1 °F -39.1 °F -31.0 °F 74% 30.91 in 10.0 mi SSE 4.6 mph - N/A   Clear
4:01 PM -25.1 °F -39.1 °F -31.0 °F 74% 30.89 in 10.0 mi SE 4.6 mph - N/A   Clear
5:01 PM -26.0 °F -37.5 °F -31.0 °F 77% 30.88 in 10.0 mi ESE 3.5 mph - N/A   Clear
6:01 PM -26.0 °F -42.4 °F -31.0 °F 77% 30.86 in 10.0 mi East 5.8 mph - N/A   Clear
7:01 PM -25.1 °F -44.7 °F -29.9 °F 78% 30.84 in 10.0 mi East 8.1 mph - N/A   Clear
8:01 PM -24.0 °F -40.0 °F -29.0 °F 77% 30.83 in 10.0 mi ESE 5.8 mph - N/A   Clear
9:01 PM -26.0 °F -42.4 °F -31.0 °F 77% 30.82 in 10.0 mi East 5.8 mph - N/A   Clear
10:01 PM -25.1 °F -39.1 °F -31.0 °F 74% 30.80 in 10.0 mi East 4.6 mph - N/A   Clear
11:01 PM -25.1 °F -36.5 °F -29.9 °F 78% 30.79 in 10.0 mi ESE 3.5 mph - N/A   Clear